Track STARLINK-4080 now! 10-day predictions STARLINK-4080 is classified as:
1 52835U 22062F 22221.25001157 -.01128275 00000-0 -52168-1 0 9996 2 52835 53.2173 148.2197 0001395 77.4733 138.8109 15.22416748 8241